When you browse on this site, cookies collect data to enhance your experience and personalize the content and advertising you see.
Visit our Privacy Policy to learn more. By continuing to use the site, you agree to this use of cookies and data.
  • In United Kingdom
  • List of Countries
  • For 7 days
  • Water Temperature
  • Weather Map
  • Weather Widgets
  • user-avatar
    Login

    Hourly Weather Nuernberg

    Today, 24 August, Saturday

    Time Temperature Precipitation Wind Pressure Humidity
    00:00 +18°C° 0 mm 1 mps 739 mmHg 88%
    01:00 +16°C° 0 mm 1 mps 739 mmHg 89%
    02:00 +16°C° 0 mm 1 mps 739 mmHg 89%
    03:00 +16°C° 0 mm 1 mps 739 mmHg 88%
    04:00 +16°C° 0 mm 1 mps 738 mmHg 88%
    05:00 +16°C° 0 mm 2 mps 738 mmHg 86%
    06:00 +17°C° 0 mm 2 mps 738 mmHg 83%
    07:00 +18°C° 0 mm 2 mps 738 mmHg 81%
    08:00 +20°C° 0 mm 2 mps 738 mmHg 75%
    09:00 +23°C° 0 mm 2 mps 739 mmHg 69%
    10:00 +25°C° 0 mm 2 mps 739 mmHg 63%
    11:00 +26°C° 0 mm 2 mps 738 mmHg 60%
    12:00 +28°C° 0 mm 2 mps 738 mmHg 56%
    13:00 +29°C° 0 mm 2 mps 738 mmHg 53%
    14:00 +29°C° 0 mm 2 mps 738 mmHg 54%
    15:00 +29°C° 0 mm 2 mps 737 mmHg 56%
    16:00 +29°C° 0 mm 2 mps 737 mmHg 57%
    17:00 +27°C° 0.2 mm 2 mps 737 mmHg 64%
    18:00 +26°C° 0.2 mm 2 mps 736 mmHg 72%
    19:00 +24°C° 0.2 mm 2 mps 736 mmHg 80%
    20:00 +23°C° 0.4 mm 1 mps 736 mmHg 83%
    21:00 +22°C° 0.4 mm 1 mps 736 mmHg 87%
    22:00 +21°C° 0.4 mm 1 mps 736 mmHg 91%
    23:00 +21°C° 0.1 mm 1 mps 736 mmHg 92%

    Tomorrow, 25 August, Sunday

    Time Temperature Precipitation Wind Pressure Humidity
    00:00 +20°C° 0.1 mm 1 mps 736 mmHg 92%
    01:00 +18°C° 0.1 mm 0 mps 736 mmHg 93%
    02:00 +18°C° 0 mm 0 mps 736 mmHg 93%
    03:00 +18°C° 0 mm 0 mps 736 mmHg 93%
    04:00 +17°C° 0 mm 0 mps 736 mmHg 94%
    05:00 +18°C° 0 mm 0 mps 736 mmHg 92%
    06:00 +19°C° 0 mm 0 mps 736 mmHg 91%
    07:00 +19°C° 0 mm 0 mps 736 mmHg 89%
    08:00 +21°C° 0 mm 0 mps 736 mmHg 82%
    09:00 +23°C° 0 mm 0 mps 736 mmHg 75%
    10:00 +25°C° 0 mm 0 mps 737 mmHg 68%
    11:00 +27°C° 0 mm 0 mps 737 mmHg 63%
    12:00 +28°C° 0 mm 0 mps 736 mmHg 58%
    13:00 +29°C° 0 mm 0 mps 736 mmHg 53%
    14:00 +29°C° 0.2 mm 0 mps 736 mmHg 54%
    15:00 +30°C° 0.2 mm 1 mps 736 mmHg 55%
    16:00 +30°C° 0.2 mm 1 mps 736 mmHg 56%
    17:00 +28°C° 1 mm 1 mps 736 mmHg 63%
    18:00 +26°C° 1 mm 1 mps 736 mmHg 71%
    19:00 +24°C° 1 mm 1 mps 736 mmHg 79%
    20:00 +24°C° 0.5 mm 1 mps 736 mmHg 81%
    21:00 +23°C° 0.5 mm 1 mps 736 mmHg 83%
    22:00 +20°C° 0.5 mm 0 mps 736 mmHg 86%
    23:00 +20°C° 0.3 mm 0 mps 736 mmHg 87%

    Day after tomorrow, 26 August, Monday

    Time Temperature Precipitation Wind Pressure Humidity
    00:00 +19°C° 0.3 mm 0 mps 736 mmHg 88%
    01:00 +19°C° 0.3 mm 0 mps 736 mmHg 89%
    02:00 +19°C° 0 mm 0 mps 736 mmHg 90%
    03:00 +18°C° 0 mm 0 mps 736 mmHg 91%
    04:00 +18°C° 0 mm 0 mps 736 mmHg 91%
    05:00 +19°C° 0 mm 0 mps 736 mmHg 90%
    06:00 +19°C° 0 mm 0 mps 736 mmHg 89%
    07:00 +20°C° 0 mm 0 mps 736 mmHg 88%
    08:00 +22°C° 0 mm 0 mps 736 mmHg 81%
    09:00 +24°C° 0 mm 0 mps 736 mmHg 75%
    10:00 +26°C° 0 mm 0 mps 736 mmHg 68%
    11:00 +26°C° 1.7 mm 0 mps 736 mmHg 65%
    12:00 +29°C° 1.7 mm 1 mps 736 mmHg 62%
    13:00 +30°C° 1.7 mm 1 mps 736 mmHg 58%
    14:00 +30°C° 0.4 mm 1 mps 736 mmHg 59%
    15:00 +30°C° 0.4 mm 1 mps 735 mmHg 59%
    16:00 +29°C° 0.4 mm 1 mps 735 mmHg 59%
    17:00 +28°C° 0 mm 1 mps 735 mmHg 64%
    18:00 +24°C° 0 mm 0 mps 735 mmHg 70%
    19:00 +23°C° 0 mm 0 mps 735 mmHg 75%
    20:00 +22°C° 0.2 mm 0 mps 735 mmHg 77%
    21:00 +21°C° 0.2 mm 0 mps 735 mmHg 80%
    22:00 +20°C° 0.2 mm 0 mps 735 mmHg 82%
    23:00 +20°C° 0 mm 0 mps 735 mmHg 83%

    27 August, Tuesday

    Time Temperature Precipitation Wind Pressure Humidity
    00:00 +20°C° 0 mm 0 mps 735 mmHg 84%
    01:00 +19°C° 0 mm 0 mps 734 mmHg 85%
    02:00 +19°C° 0 mm 0 mps 734 mmHg 86%
    03:00 +19°C° 0 mm 0 mps 734 mmHg 87%
    04:00 +18°C° 0 mm 0 mps 734 mmHg 88%
    05:00 +19°C° 0 mm 0 mps 735 mmHg 87%
    06:00 +20°C° 0 mm 0 mps 735 mmHg 85%
    07:00 +20°C° 0 mm 0 mps 735 mmHg 84%
    08:00 +24°C° 0 mm 1 mps 735 mmHg 77%
    09:00 +26°C° 0 mm 1 mps 735 mmHg 70%
    10:00 +28°C° 0 mm 1 mps 735 mmHg 64%
    11:00 +29°C° 0 mm 1 mps 735 mmHg 60%
    12:00 +30°C° 0 mm 1 mps 735 mmHg 55%
    13:00 +31°C° 0 mm 1 mps 735 mmHg 51%
    14:00 +31°C° 0.1 mm 1 mps 735 mmHg 51%
    15:00 +31°C° 0.1 mm 1 mps 735 mmHg 51%
    16:00 +31°C° 0.1 mm 1 mps 734 mmHg 52%
    17:00 +29°C° 0 mm 1 mps 734 mmHg 58%
    18:00 +27°C° 0 mm 1 mps 734 mmHg 64%
    19:00 +25°C° 0 mm 1 mps 734 mmHg 71%
    20:00 +22°C° 0 mm 0 mps 734 mmHg 72%
    21:00 +21°C° 0 mm 0 mps 734 mmHg 73%
    22:00 +21°C° 0 mm 0 mps 734 mmHg 75%
    23:00 +20°C° 0 mm 0 mps 734 mmHg 76%

    28 August, Wednesday

    Time Temperature Precipitation Wind Pressure Humidity
    00:00 +20°C° 0 mm 0 mps 734 mmHg 77%
    01:00 +19°C° 0 mm 0 mps 734 mmHg 78%
    02:00 +19°C° 0 mm 0 mps 734 mmHg 80%
    03:00 +19°C° 0 mm 0 mps 734 mmHg 81%
    04:00 +18°C° 0 mm 0 mps 734 mmHg 82%
    05:00 +19°C° 0 mm 0 mps 734 mmHg 81%
    06:00 +22°C° 0 mm 1 mps 735 mmHg 80%
    07:00 +22°C° 0 mm 1 mps 735 mmHg 79%
    08:00 +24°C° 0 mm 1 mps 735 mmHg 72%
    09:00 +26°C° 0 mm 1 mps 735 mmHg 65%
    10:00 +28°C° 0 mm 1 mps 735 mmHg 58%
    11:00 +30°C° 0 mm 1 mps 735 mmHg 52%
    12:00 +29°C° 0 mm 0 mps 735 mmHg 47%
    13:00 +30°C° 0 mm 0 mps 735 mmHg 42%
    14:00 +32°C° 0 mm 1 mps 734 mmHg 42%
    15:00 +31°C° 0 mm 1 mps 734 mmHg 42%
    16:00 +31°C° 0 mm 1 mps 734 mmHg 42%
    17:00 +29°C° 0 mm 1 mps 734 mmHg 49%
    18:00 +27°C° 0 mm 1 mps 734 mmHg 56%
    19:00 +25°C° 0 mm 1 mps 734 mmHg 64%
    20:00 +24°C° 0 mm 1 mps 734 mmHg 65%
    21:00 +24°C° 0 mm 1 mps 734 mmHg 66%
    22:00 +21°C° 0 mm 0 mps 734 mmHg 68%
    23:00 +21°C° 0 mm 0 mps 734 mmHg 68%

    29 August, Thursday

    Time Temperature Precipitation Wind Pressure Humidity
    00:00 +20°C° 0 mm 0 mps 734 mmHg 69%
    01:00 +20°C° 0 mm 0 mps 734 mmHg 70%
    02:00 +20°C° 0 mm 0 mps 734 mmHg 71%
    03:00 +19°C° 0 mm 0 mps 734 mmHg 72%
    04:00 +19°C° 0 mm 0 mps 734 mmHg 73%
    05:00 +19°C° 0 mm 0 mps 734 mmHg 73%
    06:00 +20°C° 0 mm 0 mps 734 mmHg 73%
    07:00 +21°C° 0 mm 0 mps 734 mmHg 73%
    08:00 +22°C° 0 mm 0 mps 734 mmHg 67%
    09:00 +26°C° 0 mm 1 mps 734 mmHg 62%
    10:00 +28°C° 0 mm 1 mps 735 mmHg 56%
    11:00 +29°C° 0 mm 1 mps 735 mmHg 53%
    12:00 +30°C° 0 mm 1 mps 734 mmHg 50%
    13:00 +31°C° 0 mm 1 mps 734 mmHg 46%
    14:00 +31°C° 0 mm 2 mps 734 mmHg 47%
    15:00 +31°C° 0 mm 2 mps 734 mmHg 48%
    16:00 +30°C° 0 mm 2 mps 734 mmHg 49%
    17:00 +29°C° 0 mm 2 mps 734 mmHg 56%
    18:00 +27°C° 0 mm 2 mps 734 mmHg 63%
    19:00 +25°C° 0 mm 1 mps 733 mmHg 70%
    20:00 +24°C° 0.3 mm 1 mps 734 mmHg 74%
    21:00 +23°C° 0.3 mm 1 mps 734 mmHg 79%
    22:00 +20°C° 0.3 mm 0 mps 734 mmHg 83%
    23:00 +19°C° 0.1 mm 0 mps 734 mmHg 84%
    Show more